This is the latest recevied weather packets stored in our database for station/object KC9DRE. If no packets are shown the sender has not sent any weather packets the latest 10 day(s).
| Time | Temp. | Humidity | Pressure | Rain* | Wind** | Luminosity | Snow |
|---|---|---|---|---|---|---|---|
| 1778334256 | 19.44° C | 66% | 1009.4 hPa | 0 mm | - | 452 W/m² | - |
| 1778333953 | 18.89° C | 69% | 1009.5 hPa | 0 mm | - | 437 W/m² | - |
| 1778333649 | 18.33° C | 68% | 1009.2 hPa | 0 mm | - | 382 W/m² | - |
| 1778333348 | 18.33° C | 70% | 1009.2 hPa | 0 mm | - | 401 W/m² | - |
| 1778333046 | 18.33° C | 70% | 1009.5 hPa | 0 mm | - | 383 W/m² | - |
| 1778332743 | 17.78° C | 73% | 1009.2 hPa | 0 mm | - | 365 W/m² | - |
| 1778332439 | 17.22° C | 74% | 1009.3 hPa | 0 mm | - | 351 W/m² | - |
| 1778332136 | 17.78° C | 74% | 1009.3 hPa | 0 mm | - | 334 W/m² | - |
| 1778331831 | 17.22° C | 75% | 1009.4 hPa | 0 mm | - | 82 W/m² | - |
| 1778331529 | 16.67° C | 78% | 1009.1 hPa | 0 mm | - | 299 W/m² | - |
| 1778331225 | 16.67° C | 79% | 1009.1 hPa | 0 mm | - | 284 W/m² | - |
| 1778330921 | 16.11° C | 80% | 1009 hPa | 0 mm | - | 266 W/m² | - |
| 1778330618 | 16.11° C | 81% | 1009 hPa | 0 mm | - | 251 W/m² | - |
| 1778330316 | 16.11° C | 80% | 1009.1 hPa | 0 mm | - | 235 W/m² | - |
| 1778330013 | 16.11° C | 80% | 1009.1 hPa | 0 mm | - | 217 W/m² | - |
| 1778329708 | 15.56° C | 82% | 1009.1 hPa | 0 mm | - | 198 W/m² | - |
| 1778329406 | 15° C | 84% | 1009.2 hPa | 0 mm | - | 179 W/m² | - |
| 1778329103 | 14.44° C | 88% | 1009 hPa | 0 mm | - | 161 W/m² | - |
| 1778328800 | 13.89° C | 92% | 1009.4 hPa | 0 mm | - | 64 W/m² | - |
| 1778328498 | 13.33° C | 91% | 1009.2 hPa | 0 mm | - | 82 W/m² | - |
| 1778328196 | 13.33° C | 91% | 1009.2 hPa | 0 mm | - | 46 W/m² | - |
| 1778327894 | 13.33° C | 91% | 1009.2 hPa | 0 mm | - | 46 W/m² | - |
| 1778327590 | 13.33° C | 91% | 1009.2 hPa | 0 mm | - | 39 W/m² | - |
| 1778327288 | 13.33° C | 91% | 1008.8 hPa | 0 mm | - | 48 W/m² | - |
| 1778326987 | 13.33° C | 92% | 1008.8 hPa | 0 mm | - | 47 W/m² | - |
* Rain latest hour (hover to see other rain measurements)
** Current wind speed in m/s (hover to see current wind gust speed)